Regional Weather Roundup
Issued by NWS

Home | Current Version | Previous Version | Graphics & Text | Print | Product List | Glossary On
Versions: 1 2 3 4 5 6 7 8 9 10 11 12 13 14 15 16 17 18 19 20 21 22 23 24 25 26 27 28 29 30 31 32 33 34 35 36 37 38 39 40 41 42 43 44 45 46 47 48 49 50
997
ASUS43 KLSX 260307
RWRMO

WEATHER SUMMARY FOR MISSOURI
NATIONAL WEATHER SERVICE SPRINGFIELD MO
1000 PM CDT SUN JUN 25 2017

NOTE: "FAIR" INDICATES FEW OR NO CLOUDS BELOW 12,000 FEET WITH NO
       SIGNIFICANT WEATHER AND/OR OBSTRUCTIONS TO VISIBILITY.
       CURRENT SKY AND/OR WEATHER CONDITIONS ARE NOT AVAILABLE FOR
       CHILLICOTHE AND FARMINGTON.

MOZ001>031-035>038-043-044-053-054-260400-
...NORTHERN AND WESTERN MISSOURI...

CITY           SKY/WX    TMP DP  RH WIND       PRES   REMARKS
KANSAS CTY INT PTCLDY    60  51  72 W5        30.23S
KANSAS C DTWN  CLEAR     63  52  67 W3        30.23S
LEE`S SUMMIT   CLOUDY    61  52  72 W5        30.24R
ST JOSEPH      CLEAR     63  55  75 CALM      30.23S
CHILLICOTHE      N/A     60  52  74 CALM      30.23R
KIRKSVILLE     CLEAR     58  50  75 W3        30.21R

$$
MOZ066>068-077>081-088>096-101>105-260400-
...SOUTHWEST MISSOURI...

CITY           SKY/WX    TMP DP  RH WIND       PRES   REMARKS
SPRINGFIELD    CLOUDY    69  57  65 N7        30.22R
JOPLIN         CLOUDY    69  57  65 NE5       30.23S
BRANSON        MOCLDY    72  57  60 CALM      30.23S

$$
MOZ032>034-039>042-045>050-055>058-069>072-260400-
...CENTRAL MISSOURI...

CITY           SKY/WX    TMP DP  RH WIND       PRES   REMARKS
COLUMBIA       PTCLDY    66  51  58 W5        30.21R
JEFFERSON CITY CLOUDY    69  51  52 W7        30.20R
ROLLA          CLOUDY    69  51  52 NW8       30.20S
SEDALIA        PTCLDY    62  53  72 W6        30.23S
WHITEMAN AFB   PTCLDY    62  53  71 NW3       30.22R
WARRENSBURG    PTCLDY    61  50  67 NW3       30.22S
OSAGE BEACH    CLOUDY    70  49  47 N5        30.23R

$$
MOZ051-052-059>065-260400-
...EAST CENTRAL MISSOURI...

CITY           SKY/WX    TMP DP  RH WIND       PRES   REMARKS
ST LOUIS INTL  PTCLDY    71  46  40 NW6       30.19R
SPIRIT OF STL  MOCLDY    71  48  43 N5        30.17R
ST CHARLES     CLEAR     68  47  46 N8        30.17R

$$
MOZ072>076-082>087-097>100-106>115-260400-
...SOUTH CENTRAL AND SOUTHEAST MISSOURI...

CITY           SKY/WX    TMP DP  RH WIND       PRES   REMARKS
CAPE GIRARDEAU CLEAR     66  60  81 CALM      30.16R
FARMINGTON     MOCLDY    71  51  49 NW3       30.20R
POPLAR BLUFF   CLEAR     71  64  78 CALM      30.16R
WEST PLAINS    CLEAR     70  54  56 N5        30.23R

$$



USA.gov is the U.S. government's official web portal to all federal, state and local government web resources and services.